Regional Weather Roundup
Issued by NWS Burlington, VT

Home | Current Version | Previous Version | Text Only | Print | Product List | Glossary On
Versions: 1 2 3 4 5 6 7 8 9 10 11 12 13 14 15 16 17 18 19 20 21 22 23 24 25 26 27 28 29 30 31 32 33 34 35 36 37 38 39 40 41 42 43 44 45 46 47 48 49 50
000
ASUS41 KBTV 240530
RWRBTV
VERMONT REGIONAL WEATHER ROUNDUP
NATIONAL WEATHER SERVICE BURLINGTON VT
100 AM EDT MON APR 24 2017

NOTE: "FAIR" INDICATES FEW OR NO CLOUDS BELOW 12,000 FEET WITH NO
SIGNIFICANT WEATHER AND/OR OBSTRUCTIONS TO VISIBILITY.

* THESE REPORTS ARE NOT UNDER NWS QUALITY CONTROL AND/OR DO NOT
  REPORT WEATHER SUCH AS PRECIPITATION AND FOG.

VTZ001>019-240600-
_____VERMONT_____


CITY           SKY/WX    TMP DP  RH WIND       PRES   REMARKS
BURLINGTON     CLEAR     53  36  52 N9        30.07R
MONTPELIER     CLEAR     51  26  37 NW12      30.08R
MORRISVILLE    CLEAR     48  30  49 NW7       30.06S
ST. JOHNSBURY*   N/A     40  37  89 MISG      30.02R
LYNDONVILLE*   FAIR      51  30  43 CALM      30.05F
MIDDLEBURY*    FAIR      45  33  64 CALM      30.05R
RUTLAND*       CLEAR     47  31  53 E6        30.06S
SPRINGFIELD    CLEAR     37  33  85 CALM      30.07R
HIGHGATE*      CLOUDY    48  39  71 N8        30.09R
NEWPORT*       FAIR      43  37  80 N5        30.06S
BENNINGTON     CLEAR     41  34  76 CALM      30.07R
SUTTON*          N/A     45 N/A N/A MISG        N/A
ISLAND POND*     N/A     41 N/A N/A NW3         N/A
GALLUP MILLS*    N/A     37 N/A N/A MISG        N/A
UNION VILLAGE*   N/A     37 N/A N/A MISG        N/A
MT. MANSFIELD*   N/A     37 N/A N/A NW33        N/A  WCI  24

_____LAKE CHAMPLAIN_____


CITY           SKY/WX    TMP DP  RH WIND       PRES   REMARKS
BURTON ISLAND*   N/A     48  41  76 NE3         N/A
COLCHESTER RF*   N/A     50  39  66 N16         N/A
DIAMOND ISL*     N/A     55  30  38 N20G26      N/A

$$

NYZ007-026>031-035-052-083-087-240600-
_____NORTHERN NEW YORK_____


CITY           SKY/WX    TMP DP  RH WIND       PRES   REMARKS
PLATTSBURGH    CLEAR     50  34  54 NW9       30.08R
SARANAC LAKE   CLEAR     36  28  73 CALM      30.05S
MASSENA        PTCLDY    45  33  63 N3        30.14R
OGDENSBURG*    FAIR      44  36  72 N8G16     30.13R
POTSDAM*       CLEAR     45  37  76 N8        30.12R
STARK FALLS*     N/A     37 N/A N/A N2          N/A
WATERTOWN      CLEAR     42  36  79 NE8       30.09S
FT DRUM        CLEAR     44  34  68 CALM      30.09R
ALBANY         MOCLDY    47  37  68 CALM      30.08R
GLENS FALLS    CLEAR     39  31  72 CALM      30.06R

$$
NHZ002-005-011-240600-
_____NEW HAMPSHIRE_____


CITY           SKY/WX    TMP DP  RH WIND       PRES   REMARKS
LEBANON        CLEAR     41  35  79 CALM      30.04R
KEENE          CLEAR     42  38  85 CALM      30.09R
MT WASHINGTON  PTCLDY    30  27  86 W53         N/A  WCI  11
PLYMOUTH       FAIR      37  36  96 CALM      30.03F
WHITEFIELD     CLEAR     34  30  85 SE3       30.03R

$$

_____REGIONAL QUEBEC LOCATIONS_____


CITY           SKY/WX    TMP DP  RH WIND       PRES   REMARKS
MONTREAL       PTCLDY    43  28  56 N14G21    30.12R
QUEBEC CITY    PTCLDY    34  30  86 W9        30.08R WCI  26
SHERBROOKE     MOCLDY    41  36  81 NW10      30.07R

_____REGIONAL ONTARIO LOCATIONS_____


CITY           SKY/WX    TMP DP  RH WIND       PRES   REMARKS
OTTAWA         MOCLDY    39  28  65 N14       30.15R WCI  31

______KEY______
VSB  - VISIBILITY IN MILES
WCI  - WIND CHILL INDEX
HX   - HEAT INDEX
$$
NNNN




USA.gov is the U.S. government's official web portal to all federal, state and local government web resources and services.